Carlos Martinez

Olheiro-Chefe - General Diaz
17 Jul 2027
Sábado
Processo

Personalidade

Adaptabilidade (17) Ambição (7) Controvérsia (18) Lealdade (19) Pressão (8) Profissionalismo (8) Espírito Esportivo (13) Temperamento (1)

Perfil

Estilo de Treinamento Democrático
Licença Nacional A
Determinação 3
Gestão de Pessoas 6
Motivação 5
Disciplina 7
Satisfação no Trabalho
100%
Fadiga
0%
Função Olheiro-Chefe
Salário 19.2K p/s
Contrato 14.03.2030

Desempenho

Comportamento Bom
Eficácia do Treinamento
36%
Desenvolvimento do Jogador
45%
Prevenção de Lesões
20%
Implementação Tática
40%

Eventos Recentes

Participou de uma reunião de recrutamento agora
Recomendou um alvo de transferência agora
Recomendou um alvo de transferência agora
Participou de uma reunião de recrutamento agora
Recomendou um alvo de transferência 7d atrás
Participou de uma reunião de recrutamento 7d atrás
Participou de uma reunião de recrutamento 7d atrás
Participou de uma reunião de recrutamento 7d atrás

Monitorando agora

101
Jogador Clube Status Habilidade Confiança Observado Última observação Último voto
Dragos Balasa Epicentr Negociando 94 / 95 66% 1 01.06.2027 Aprovar
Estifen Díaz Libertad Negociando 86 / 95 62% 1 01.06.2027 Aprovar
Driton Camaj Novi Pazar Ativo 109 / 107 40% 4 30.05.2027 -
Kelly Saravanan Salford City Ativo 127 / 128 40% 5 30.05.2027 -
Carlos Guerreño Deportivo Lara Ativo 104 / 104 40% 1 28.05.2027 -
Paul Glatzel Swindon Town Ativo 98 / 83 40% 2 27.05.2027 -
Blas Armoa Gimnasia y Esgrima Ativo 118 / 125 40% 3 27.05.2027 -
Guillermo Paiva Junior Ativo 111 / 129 40% 1 21.05.2027 -
Lucas Ríos Atlanta Ativo 116 / 111 40% 1 21.05.2027 -
Calum Kavanagh Oldham Athletic Ativo 101 / 97 40% 2 19.05.2027 -
Matty Stevens AFC Wimbledon Ativo 107 / 111 40% 1 19.05.2027 -
Alejandro Piedrahita Deportivo Pereira Ativo 129 / 126 40% 2 18.05.2027 -
Fabrizio Cavegn Bristol Rovers Ativo 121 / 105 40% 5 16.05.2027 Observar
Aaron Drinan Swindon Town Ativo 113 / 110 40% 2 14.05.2027 Mais informações
Emanuele Schimmenti Potenza Ativo 110 / 94 40% 1 13.05.2027 -
Daniel Udoh Salford City Ativo 117 / 111 40% 2 12.05.2027 -
Rui Costa Port Vale Ativo 106 / 92 40% 1 12.05.2027 -
Giacomo Zecca Torres Ativo 121 / 109 40% 3 11.05.2027 -
Ronan Hale Gillingham Ativo 126 / 93 40% 2 10.05.2027 -
Josh Koroma Leyton Orient Ativo 103 / 100 40% 1 10.05.2027 -
Kyle Wootton Stockport County Ativo 124 / 133 40% 2 09.05.2027 -
Mees Rijks Bristol Rovers Ativo 107 / 96 40% 2 08.05.2027 -
Saliou Guindo Real Bamako Ativo 93 / 94 40% 2 05.05.2027 -
Ekain Orobengoa Real Sociedad Ativo 94 / 98 40% 5 05.05.2027 -
Luca Martínez Dupuy Godoy Cruz Ativo 115 / 130 40% 2 03.05.2027 Mais informações
Anthony Scully Shrewsbury Town Ativo 87 / 88 40% 4 03.05.2027 -
Marcus Browne AFC Wimbledon Ativo 94 / 121 40% 2 01.05.2027 -
Felipe Fernández Virtus Entella Ativo 95 / 87 40% 2 27.04.2027 -
Thalys Almería Ativo 109 / 133 40% 1 23.04.2027 -
Leandro Suhr Piast Ativo 116 / 115 40% 4 22.04.2027 -
Jeffrey Sulemana Hasaacas Ativo 85 / 79 40% 3 20.04.2027 -
Julian Cuadrado Cortulua Ativo 123 / 117 40% 1 18.04.2027 -
Iwan Morgan Grimsby Town Ativo 105 / 115 40% 3 16.04.2027 -
Harrison Inusah BA All Stars Ativo 102 / 94 40% 2 16.04.2027 -
Samuel Kalu Botev Plovdiv Ativo 131 / 102 40% 4 11.04.2027 -
Lewis McCann Fleetwood Town Ativo 109 / 97 40% 2 11.04.2027 -
Matteo Rover Reggiana Ativo 110 / 116 40% 1 08.04.2027 -
Bradley Fink Wycombe Wanderers Ativo 108 / 116 40% 1 07.04.2027 -
Bojan Radulović Huddersfield Town Ativo 127 / 125 40% 3 04.04.2027 -
German Onugkha Rodina Ativo 116 / 103 40% 2 02.04.2027 -
Niall Ennis Blackpool Ativo 99 / 99 40% 1 02.04.2027 -
Aaron Connolly Ruch Ativo 123 / 112 40% 3 01.04.2027 -
Marco Tumminello Benevento Ativo 113 / 104 40% 2 29.03.2027 -
Stephen Humphrys Bradford City Ativo 114 / 111 40% 1 28.03.2027 -
Mohamed Mallahi Pro Vercelli Ativo 96 / 100 40% 1 27.03.2027 -
Matías Contrera Northampton Town Ativo 96 / 102 40% 1 26.03.2027 -
Prince Ukachukwu Victoria United Ativo 99 / 103 40% 2 25.03.2027 -
David Ankeye Zeleznicar Pancevo Ativo 124 / 99 40% 1 25.03.2027 -
Moussakoye Diallo Stade Malien Ativo 114 / 99 40% 2 23.03.2027 -
Sam Nombe Milton Keynes Dons Ativo 99 / 121 40% 1 20.03.2027 -
Friday Ubong Hearts of Oak Ativo 91 / 94 40% 3 17.03.2027 -
Camillo Tavernelli Arezzo Ativo 127 / 102 40% 3 17.03.2027 -
Simone Mazzocchi Cosenza Ativo 124 / 110 40% 1 16.03.2027 -
Giuseppe Sibilli Juve Stabia Ativo 104 / 123 40% 1 15.03.2027 -
Ettore Gliozzi Mantova Ativo 112 / 126 40% 1 13.03.2027 -
Shayne Lavery Cambridge United Ativo 100 / 94 40% 2 12.03.2027 -
Javi Zarzo Gubbio Ativo 96 / 110 40% 1 09.03.2027 -
Bohdan Viunnyk Lechia Ativo 116 / 106 40% 1 03.03.2027 -
Nardin Mulahusejnović Vojvodina Ativo 109 / 131 40% 1 28.02.2027 -
Dom Ballard Leyton Orient Ativo 133 / 120 40% 4 27.02.2027 -
Thomas Agyepong Berekum Chelsea Ativo 105 / 92 40% 1 24.02.2027 -
Luca Moro Padova Ativo 105 / 107 40% 1 24.02.2027 -
Mihael Mlinarić Zaglebie Ativo 113 / 122 40% 1 22.02.2027 -
Aaron Collins Milton Keynes Dons Ativo 113 / 123 40% 1 20.02.2027 -
Erik Prekop Gornik Zabrze Ativo 125 / 113 40% 2 18.02.2027 -
Filip Kubala Banik Ostrava Ativo 114 / 105 40% 1 17.02.2027 -
Edarlyn Reyes Arsenal Tula Ativo 108 / 122 40% 1 16.02.2027 -
Elijah Adebayo Luton Town Ativo 113 / 119 40% 3 12.02.2027 -
Eddie Salcedo OFI Ativo 134 / 135 40% 1 03.02.2027 -
Francisco Bareiro Vaduz Ativo 113 / 91 40% 1 01.02.2027 -
Job Ochieng Real Sociedad Ativo 109 / 91 40% 1 31.01.2027 -
Aidomo Emakhu Oxford United Ativo 112 / 122 40% 1 30.01.2027 -
Leandro Godoy CSKA Sofia Ativo 132 / 126 40% 2 28.01.2027 -
Ezequiel Almirón Estudiantes Ativo 118 / 102 40% 2 25.01.2027 -
Samuel Tetteh Ashanti Gold Ativo 116 / 103 40% 1 23.01.2027 -
Ammar Ramadan DAC Dunajska Streda Ativo 128 / 107 40% 1 22.01.2027 -
Christian Saydee Wigan Athletic Ativo 128 / 130 40% 1 18.01.2027 -
François Kamano Sochi Ativo 126 / 99 40% 1 13.01.2027 -
Thiago Calone All Boys Ativo 110 / 123 40% 1 12.01.2027 -
Alonso Martínez NK Osijek Ativo 130 / 100 40% 1 09.01.2027 -
Adam Bareiro Boca Juniors Ativo 136 / 133 40% 1 06.01.2027 -
Francisco Bonfiglio Boston River Ativo 102 / 112 40% 1 05.01.2027 -
Gonzalo Flores Almirante Brown Ativo 103 / 123 40% 1 28.12.2026 -
José Barreto Quilmes Ativo 123 / 105 40% 1 28.12.2026 -
Santiago Sala Güemes Ativo 104 / 106 40% 1 15.12.2026 -
Axel Cañete Sportivo Trinidense Ativo 93 / 97 58% 1 01.12.2026 Aprovar
José Rivera Universitario Ativo 105 / 115 40% 1 09.09.2026 -
Francisco Perruzzi Aldosivi Ativo 105 / 114 40% 1 09.09.2026 -
Maurice Malone Minnesota United FC Ativo 113 / 112 40% 1 07.09.2026 -
Lucas Arce Godoy Cruz Ativo 124 / 131 40% 1 07.09.2026 -
Kevin Quevedo Universitario Ativo 125 / 113 40% 1 07.08.2026 -
Facundo Kalinger Huracán Ativo 101 / 118 40% 1 07.08.2026 -
Francisco González Metilli Belgrano Ativo 128 / 113 40% 1 06.08.2026 -
Juan Sebastián Herrera Deportivo La Guaira Ativo 99 / 113 40% 1 04.08.2026 -
Roger Hinojo Espanyol Ativo 107 / 132 40% 1 04.08.2026 -
Franco Zanelatto Melgar Ativo 101 / 105 40% 1 03.08.2026 -
Rodrigo Amarilla San Lorenzo Ativo 94 / 112 40% 1 02.08.2026 -
José Gómez Central Córdoba SdE Ativo 106 / 107 40% 1 02.08.2026 -
Siro Rosané Estudiantes Ativo 127 / 111 40% 1 01.08.2026 -
Nahuel Gallardo San Martín Ativo 111 / 120 40% 1 01.08.2026 -
Miguel Acosta Argentinos Juniors Ativo 96 / 109 40% 1 01.08.2026 -